Meteo Giornale » Osservazioni meteo Norvegia » Torp
ore: 23:50 - Osservazioni Meteo Torp
Lat. 59° 12' N Lon. 10° 16' E Alt. 8 metri s.l.m.
13 °C
Sereno
Temp. 24 Ore
9 °C
19 °C
Nord
3.7 Km/h
Dew point 13 °C
Umidità 100 %
Visibilità 10 Km
Il sole sorge alle ore 06:18
Il sole tramonta alle ore 20:18
| Data e Ora | Cielo e Fenomeni | T °C | DP °C | Um. % | Pres. hPa | Vis. km | Vento km/h | |
|---|---|---|---|---|---|---|---|---|
| Ieri h: 23:50 | Sereno | 13 | 13 | 100 | 1007 | 10 | N 3.7 | |
| Ieri h: 23:20 | Sereno | 13 | 13 | 100 | 1007 | 10 | N 0 | |
| Ieri h: 22:50 | Sereno | 13 | 13 | 100 | 1007 | 10 | N 3.7 | |
| Ieri h: 22:20 | Poco Nuvoloso | 14 | 14 | 100 | 1007 | 10 | N 5.5 | |
| Ieri h: 21:50 | Poco Nuvoloso | 14 | 14 | 100 | 1007 | 10 | S 7.4 | |
| Ieri h: 21:20 | Nuvoloso | 15 | 14 | 93 | 1008 | 10 | S 11.1 | |
| Ieri h: 20:50 | Nuvoloso | 15 | 13 | 87 | 1008 | 10 | S/SO 11.1 | |
| Ieri h: 20:20 | Sereno | 16 | 13 | 82 | 1008 | 10 | S/SO 9.3 | |
| Ieri h: 19:50 | Sereno | 16 | 13 | 82 | 1008 | 10 | S/SO 16.7 | |
| Ieri h: 19:20 | Sereno | 17 | 13 | 77 | 1008 | 10 | S/SO 16.7 | |
| Ieri h: 18:50 | Sereno | 17 | 13 | 77 | 1008 | 10 | S/SO 14.8 | |
| Ieri h: 18:20 | Sereno | 17 | 13 | 77 | 1008 | 10 | S 16.7 | |
| Ieri h: 17:50 | Sereno | 18 | 12 | 67 | 1008 | 10 | S 13 | |
| Ieri h: 17:20 | Sereno | 18 | 12 | 67 | 1008 | 10 | S 13 | |
| Ieri h: 16:50 | Poco Nuvoloso | 18 | 13 | 72 | 1008 | 10 | S 14.8 | |
| Ieri h: 16:20 | Poco Nuvoloso | 19 | 13 | 68 | 1008 | 10 | S 13 | |
| Ieri h: 15:50 | Poco Nuvoloso | 19 | 13 | 68 | 1009 | 10 | S 11.1 | |
| Ieri h: 15:20 | Poco Nuvoloso | 18 | 12 | 67 | 1009 | 10 | S/SE 9.3 | |
| Ieri h: 14:50 | Poco Nuvoloso | 19 | 12 | 63 | 1009 | 10 | N 3.7 | |
| Ieri h: 14:20 | Poco Nuvoloso | 19 | 13 | 68 | 1009 | 10 | N 0 | |
| Ieri h: 13:50 | Nuvoloso | 18 | 13 | 72 | 1009 | 10 | N 3.7 | |
| Ieri h: 13:20 | Nuvoloso | 18 | 12 | 67 | 1009 | 10 | N 3.7 | |
| Ieri h: 12:50 | Molto Nuvoloso | 17 | 12 | 72 | 1009 | 10 | N 1.8 | |
| Ieri h: 12:20 | Molto Nuvoloso | 16 | 12 | 77 | 1009 | 10 | N 3.7 | |
| Ieri h: 11:50 | Molto Nuvoloso | 16 | 13 | 82 | 1009 | 10 | N 5.5 | |
| Ieri h: 11:20 | Coperto | 16 | 12 | 77 | 1008 | 10 | N 5.5 | |
| Ieri h: 10:50 | Coperto | 15 | 14 | 93 | 1008 | 10 | N/NE 9.3 | |
| Ieri h: 10:20 | Coperto | 14 | 14 | 100 | 1008 | 10 | N 7.4 | |
| Ieri h: 09:50 | Coperto | 14 | 14 | 100 | 1008 | 10 | N 9.3 | |
| Ieri h: 09:20 | Nebbia nelle vicinanze | 13 | 13 | 100 | 1008 | 10 | N 5.5 | |
| Ieri h: 08:50 | Nebbia nelle vicinanze | 12 | 12 | 100 | 1008 | 10 | N/NO 7.4 | |
| Ieri h: 08:20 | Nebbia nelle vicinanze | 12 | 12 | 100 | 1008 | 7 | N 5.5 | |
| Ieri h: 07:50 | Nebbia | 12 | 12 | 100 | 1008 | 0.55 | N 5.5 | |
| Ieri h: 07:20 | Nebbia | 11 | 11 | 100 | 1008 | 0.3 | N 3.7 | |
| Ieri h: 06:50 | Foschia | 11 | 11 | 100 | 1007 | 2 | N 5.5 | |
| Ieri h: 06:20 | Foschia | 10 | 10 | 100 | 1007 | 5 | N 3.7 | |
| Ieri h: 05:20 | Banco di nebbia | 10 | 10 | 100 | 1007 | 0.35 | N 5.5 | |
| Ieri h: 04:50 | Nebbia | 10 | 10 | 100 | 1007 | 0.45 | N 3.7 | |
| Ieri h: 04:20 | Nebbia | 10 | 10 | 100 | 1007 | 0.3 | N 5.5 | |
| Ieri h: 03:50 | Nebbia | 9 | 9 | 100 | 1007 | 0.6 | N 5.5 | |
| Ieri h: 03:20 | Banco di nebbia | 10 | 10 | 100 | 1006 | 0.45 | N 5.5 | |
| Ieri h: 02:50 | Banco di nebbia | 10 | 10 | 100 | 1006 | 0.3 | N 3.7 | |
| Ieri h: 02:20 | Nebbia | 11 | 11 | 100 | 1006 | 0.25 | N 0 | |
| Ieri h: 01:50 | Sereno | 12 | 12 | 100 | 1006 | 10 | N 0 | |
| Ieri h: 01:20 | Sereno | 11 | 11 | 100 | 1006 | 10 | N 0 | |
| Ieri h: 00:50 | Sereno | 12 | 12 | 100 | 1006 | 10 | N 3.7 | |



